Location: *
(46.1866°S, 178.5290°W)
Time: 19:04:00
(UTC+00:00)

IRIDIUM 106 - Pass Details

Date: 19 May 2021
Orbit: 776 x 779 km, 86.4° (Epoch: 18 June)

Event Time Altitude Azimuth Distance (km) Brightness Sun altitude
Rises 05:09:56 0° 183° (S) 3,304 7.4 -7.4°
Reaches altitude 10° 05:12:18 10° 181° (S) 2,369 6.6 -7.8°
Maximum altitude 05:17:38 78° 94° (E) 813 4.3 -8.7°
Drops below altitude 10° 05:22:53 10° 7° (N) 2,339 7.0 -9.6°
Sets 05:25:13 0° 5° (N) 3,259 7.7 -9.9°
